When you browse on this site, cookies collect data to enhance your experience and personalize the content and advertising you see.
Visit our Privacy Policy to learn more. By continuing to use the site, you agree to this use of cookies and data.
  • In Hungary
  • List of Countries
  • For 7 days
  • Water Temperature
  • Satellite Maps
  • Weather Map
  • News
  • Weather Widgets
  • user-avatar
    Login

    Hourly Weather New York

    Today, 17 February, Sunday

    Time Temperature Precipitation Wind Pressure Humidity
    00:00 -2°C° 0 mm 4 mps 762 mmHg 54%
    01:00 -3°C° 0 mm 4 mps 763 mmHg 55%
    02:00 -3°C° 0 mm 4 mps 763 mmHg 55%
    03:00 -3°C° 0 mm 4 mps 763 mmHg 54%
    04:00 -4°C° 0 mm 4 mps 763 mmHg 53%
    05:00 -4°C° 0 mm 4 mps 763 mmHg 53%
    06:00 -4°C° 0 mm 3 mps 764 mmHg 52%
    07:00 -5°C° 0 mm 3 mps 764 mmHg 55%
    08:00 -3°C° 0 mm 2 mps 765 mmHg 50%
    09:00 -2°C° 0 mm 2 mps 765 mmHg 45%
    10:00 +1°C° 0 mm 1 mps 765 mmHg 40%
    11:00 +2°C° 0 mm 1 mps 765 mmHg 37%
    12:00 +2°C° 0 mm 1 mps 764 mmHg 35%
    13:00 +3°C° 0 mm 1 mps 764 mmHg 32%
    14:00 +2°C° 0 mm 2 mps 764 mmHg 34%
    15:00 +2°C° 0 mm 2 mps 763 mmHg 35%
    16:00 +2°C° 0 mm 2 mps 763 mmHg 37%
    17:00 +1°C° 0 mm 3 mps 763 mmHg 44%
    18:00 +1°C° 0 mm 3 mps 763 mmHg 50%
    19:00 0°C° 0 mm 3 mps 763 mmHg 57%
    20:00 0°C° 0.2 mm 3 mps 762 mmHg 63%
    21:00 +1°C° 0.2 mm 2 mps 762 mmHg 69%
    22:00 +2°C° 0.2 mm 2 mps 762 mmHg 75%
    23:00 +2°C° 0.7 mm 2 mps 761 mmHg 79%

    Tomorrow, 18 February, Monday

    Time Temperature Precipitation Wind Pressure Humidity
    00:00 +1°C° 0.7 mm 3 mps 760 mmHg 84%
    01:00 +1°C° 0.7 mm 3 mps 760 mmHg 88%
    02:00 +1°C° 1.1 mm 3 mps 759 mmHg 91%
    03:00 +1°C° 1.1 mm 3 mps 758 mmHg 94%
    04:00 +2°C° 1.1 mm 3 mps 757 mmHg 97%
    05:00 +3°C° 0.6 mm 2 mps 757 mmHg 98%
    06:00 +3°C° 0.6 mm 2 mps 756 mmHg 98%
    07:00 +4°C° 0.6 mm 1 mps 755 mmHg 99%
    08:00 +4°C° 0 mm 2 mps 755 mmHg 95%
    09:00 +3°C° 0 mm 3 mps 755 mmHg 92%
    10:00 +4°C° 0 mm 4 mps 755 mmHg 88%
    11:00 +5°C° 0 mm 5 mps 755 mmHg 79%
    12:00 +5°C° 0 mm 6 mps 755 mmHg 70%
    13:00 +7°C° 0 mm 6 mps 756 mmHg 61%
    14:00 +5°C° 0 mm 7 mps 756 mmHg 59%
    15:00 +4°C° 0 mm 7 mps 757 mmHg 56%
    16:00 +2°C° 0 mm 8 mps 758 mmHg 54%
    17:00 +1°C° 0 mm 8 mps 760 mmHg 54%
    18:00 -1°C° 0 mm 8 mps 761 mmHg 54%
    19:00 -2°C° 0 mm 8 mps 763 mmHg 54%
    20:00 -4°C° 0 mm 8 mps 764 mmHg 53%
    21:00 -4°C° 0 mm 7 mps 766 mmHg 53%
    22:00 -4°C° 0 mm 7 mps 767 mmHg 53%
    23:00 -6°C° 0 mm 7 mps 768 mmHg 51%

    Day after tomorrow, 19 February, Tuesday

    Time Temperature Precipitation Wind Pressure Humidity
    00:00 -5°C° 0 mm 6 mps 769 mmHg 49%
    01:00 -6°C° 0 mm 6 mps 769 mmHg 47%
    02:00 -6°C° 0 mm 6 mps 770 mmHg 47%
    03:00 -6°C° 0 mm 6 mps 770 mmHg 47%
    04:00 -6°C° 0 mm 6 mps 771 mmHg 47%
    05:00 -7°C° 0 mm 5 mps 772 mmHg 47%
    06:00 -7°C° 0 mm 5 mps 772 mmHg 46%
    07:00 -7°C° 0 mm 5 mps 773 mmHg 46%
    08:00 -6°C° 0 mm 5 mps 774 mmHg 44%
    09:00 -5°C° 0 mm 4 mps 774 mmHg 41%
    10:00 -4°C° 0 mm 4 mps 775 mmHg 38%
    11:00 -3°C° 0 mm 4 mps 775 mmHg 37%
    12:00 -3°C° 0 mm 4 mps 775 mmHg 35%
    13:00 -2°C° 0 mm 4 mps 775 mmHg 33%
    14:00 -1°C° 0 mm 4 mps 775 mmHg 33%
    15:00 -1°C° 0 mm 4 mps 775 mmHg 34%
    16:00 -1°C° 0 mm 4 mps 774 mmHg 34%
    17:00 -2°C° 0 mm 4 mps 775 mmHg 37%
    18:00 -2°C° 0 mm 4 mps 775 mmHg 40%
    19:00 -2°C° 0 mm 3 mps 776 mmHg 43%
    20:00 -2°C° 0 mm 3 mps 776 mmHg 44%
    21:00 -4°C° 0 mm 3 mps 776 mmHg 44%
    22:00 -4°C° 0 mm 3 mps 776 mmHg 44%
    23:00 -4°C° 0 mm 3 mps 776 mmHg 44%

    20 February, Wednesday

    Time Temperature Precipitation Wind Pressure Humidity
    00:00 -4°C° 0 mm 3 mps 776 mmHg 44%
    01:00 -4°C° 0 mm 3 mps 776 mmHg 43%
    02:00 -3°C° 0 mm 2 mps 776 mmHg 44%
    03:00 -3°C° 0 mm 2 mps 776 mmHg 44%
    04:00 -1°C° 0 mm 1 mps 776 mmHg 44%
    05:00 -1°C° 0 mm 1 mps 776 mmHg 44%
    06:00 -1°C° 0 mm 1 mps 776 mmHg 44%
    07:00 -1°C° 0 mm 1 mps 776 mmHg 45%
    08:00 -3°C° 0 mm 2 mps 776 mmHg 45%
    09:00 -2°C° 0 mm 2 mps 776 mmHg 46%
    10:00 -2°C° 0 mm 3 mps 776 mmHg 46%
    11:00 -2°C° 0 mm 3 mps 775 mmHg 48%
    12:00 -2°C° 0 mm 4 mps 775 mmHg 50%
    13:00 -2°C° 0 mm 4 mps 774 mmHg 52%
    14:00 -2°C° 0.2 mm 4 mps 773 mmHg 59%
    15:00 -2°C° 0.2 mm 4 mps 773 mmHg 65%
    16:00 -2°C° 0.2 mm 4 mps 772 mmHg 72%
    17:00 -2°C° 0.2 mm 4 mps 771 mmHg 77%
    18:00 -2°C° 0.2 mm 5 mps 771 mmHg 81%
    19:00 -2°C° 0.2 mm 5 mps 770 mmHg 85%
    20:00 -1°C° 0.4 mm 5 mps 769 mmHg 88%
    21:00 -1°C° 0.4 mm 4 mps 768 mmHg 91%
    22:00 0°C° 0.4 mm 4 mps 767 mmHg 94%
    23:00 +1°C° 1 mm 4 mps 765 mmHg 95%

    21 February, Thursday

    Time Temperature Precipitation Wind Pressure Humidity
    00:00 +1°C° 1 mm 4 mps 763 mmHg 97%
    01:00 +3°C° 1 mm 4 mps 762 mmHg 98%
    02:00 +3°C° 1.2 mm 3 mps 760 mmHg 98%
    03:00 +3°C° 1.2 mm 3 mps 759 mmHg 98%
    04:00 +4°C° 1.2 mm 2 mps 758 mmHg 99%
    05:00 +4°C° 0.1 mm 3 mps 758 mmHg 97%
    06:00 +4°C° 0.1 mm 4 mps 758 mmHg 96%
    07:00 +4°C° 0.1 mm 4 mps 758 mmHg 95%
    08:00 +5°C° 0 mm 5 mps 758 mmHg 88%
    09:00 +7°C° 0 mm 5 mps 759 mmHg 81%
    10:00 +8°C° 0 mm 5 mps 759 mmHg 74%
    11:00 +9°C° 0 mm 5 mps 759 mmHg 66%
    12:00 +10°C° 0 mm 6 mps 759 mmHg 58%
    13:00 +11°C° 0 mm 6 mps 760 mmHg 51%
    14:00 +10°C° 0 mm 6 mps 760 mmHg 50%
    15:00 +10°C° 0 mm 6 mps 760 mmHg 50%
    16:00 +10°C° 0 mm 6 mps 761 mmHg 49%
    17:00 +8°C° 0 mm 5 mps 762 mmHg 52%
    18:00 +7°C° 0 mm 5 mps 763 mmHg 55%
    19:00 +6°C° 0 mm 5 mps 764 mmHg 57%
    20:00 +5°C° 0 mm 5 mps 764 mmHg 57%
    21:00 +3°C° 0 mm 5 mps 765 mmHg 57%
    22:00 +2°C° 0 mm 5 mps 766 mmHg 57%
    23:00 +1°C° 0 mm 5 mps 766 mmHg 58%

    22 February, Friday

    Time Temperature Precipitation Wind Pressure Humidity
    00:00 +1°C° 0 mm 5 mps 766 mmHg 60%
    01:00 +1°C° 0 mm 5 mps 767 mmHg 61%
    02:00 0°C° 0 mm 4 mps 767 mmHg 61%
    03:00 +1°C° 0 mm 3 mps 768 mmHg 62%
    04:00 +1°C° 0 mm 3 mps 768 mmHg 62%
    05:00 +2°C° 0 mm 2 mps 768 mmHg 63%
    06:00 +1°C° 0 mm 2 mps 769 mmHg 64%
    07:00 +2°C° 0 mm 1 mps 770 mmHg 65%
    08:00 +3°C° 0 mm 1 mps 770 mmHg 60%
    09:00 +4°C° 0 mm 1 mps 771 mmHg 56%
    10:00 +5°C° 0 mm 1 mps 771 mmHg 51%
    11:00 +6°C° 0 mm 1 mps 771 mmHg 47%
    12:00 +7°C° 0 mm 1 mps 771 mmHg 43%
    13:00 +8°C° 0 mm 0 mps 770 mmHg 38%
    14:00 +9°C° 0 mm 1 mps 770 mmHg 38%
    15:00 +9°C° 0 mm 1 mps 770 mmHg 38%
    16:00 +8°C° 0 mm 2 mps 770 mmHg 38%
    17:00 +7°C° 0 mm 2 mps 770 mmHg 41%
    18:00 +7°C° 0 mm 2 mps 771 mmHg 45%
    19:00 +6°C° 0 mm 2 mps 771 mmHg 49%
    20:00 +6°C° 0 mm 2 mps 771 mmHg 52%
    21:00 +5°C° 0 mm 2 mps 771 mmHg 55%
    22:00 +5°C° 0 mm 2 mps 771 mmHg 59%
    23:00 +4°C° 0 mm 2 mps 771 mmHg 61%
    Show more